This demonstration page uses our WeatherBlox Daily Observations layout. Learn more.

Left ArrowRight Arrow

39.92423, -83.80882

Hourly Observations for September 1, 2020

Temp ( °F °C ) Dew Point ( °F °C ) Humidity (%) Winds ( mph kmh ) Pressure ( in mb ) Visibility ( mi km ) Precip ( " mm )
12:56 am 00:56 Clear 66 18.9 66 18.9 100 100 SE 3 6 29.92 1013 10 16 N/A
1:56 am 01:56 Clear 66 18.9 66 18.9 100 100 N N/A 29.93 1014 8 13 N/A
2:56 am 02:56 Cloudy 68 20 68 20 100 100 VRB 3 6 29.92 1013 10 16 N/A
3:56 am 03:56 Clear with Mist and Fog 67 19.4 67 19.4 100 100 SW 5 7 29.93 1013 5 8 N/A
4:31 am 04:31 Partly Cloudy with Mist and Fog 66 19 66 19 100 100 N N/A 29.92 1013 3 4 N/A
4:35 am 04:35 Mostly Cloudy with Mist and Fog 66 19 66 19 100 100 N N/A 29.92 1013 1 2 N/A
4:38 am 04:38 Mostly Cloudy with Mist and Fog 66 19 66 19 100 100 N N/A 29.92 1013 1 1 N/A
4:47 am 04:47 Mostly Cloudy with Fog 66 19 66 19 100 100 N N/A 29.92 1013 1 1 N/A
4:56 am 04:56 Cloudy with Fog 66 18.9 66 18.9 100 100 N N/A 29.92 1013 1 1 N/A
5:11 am 05:11 Cloudy with Fog 66 19 66 19 100 100 N N/A 29.91 1013 0 0 N/A
5:56 am 05:56 Cloudy with Fog 65 18.3 65 18.3 100 100 N N/A 29.92 1013 0 0 N/A
6:56 am 06:56 Cloudy with Fog 64 17.8 64 17.8 100 100 N N/A 29.93 1014 0 0 N/A
7:56 am 07:56 Cloudy with Fog 66 18.9 66 18.9 100 100 N N/A 29.96 1015 0 0 N/A
8:07 am 08:07 Cloudy with Fog 66 19 66 19 100 100 N N/A 29.95 1014 0 0 N/A
8:14 am 08:14 Cloudy with Fog 66 19 66 19 100 100 N N/A 29.96 1014 0 0 N/A
8:22 am 08:22 Cloudy with Mist and Fog 66 19 66 19 100 100 N N/A 29.96 1014 1 1 N/A
8:26 am 08:26 Cloudy with Mist and Fog 66 19 66 19 100 100 N N/A 29.96 1014 1 2 N/A
8:40 am 08:40 Cloudy with Mist and Fog 68 20 68 20 100 100 N N/A 29.94 1014 1 1 N/A
8:46 am 08:46 Cloudy with Fog 70 21 70 21 100 100 N N/A 29.94 1014 0 0 N/A
8:56 am 08:56 Cloudy with Fog 69 20.6 69 20.6 100 100 N N/A 29.96 1015 0 0 N/A
9:42 am 09:42 Cloudy with Fog 70 21 70 21 100 100 N N/A 29.95 1014 1 1 N/A
9:49 am 09:49 Cloudy with Mist and Fog 70 21 70 21 100 100 N N/A 29.95 1014 1 2 N/A
9:56 am 09:56 Cloudy with Mist and Fog 70 21.1 70 21.1 100 100 SW 3 6 29.97 1015 1 2 N/A
10:07 am 10:07 Cloudy with Mist and Fog 70 21 70 21 100 100 SE 3 6 29.95 1014 2 3 N/A
10:15 am 10:15 Cloudy with Mist and Fog 72 22 72 22 100 100 S 3 6 29.94 1014 4 6 N/A
10:56 am 10:56 Cloudy with Mist and Fog 72 22.2 72 22.2 100 100 SE 3 6 29.97 1015 6 10 N/A
11:27 am 11:27 Cloudy 73 23 73 23 100 100 S 6 9 29.95 1014 10 16 N/A
11:42 am 11:42 Cloudy 73 23 73 23 100 100 N N/A 29.95 1014 10 16 N/A
11:56 am 11:56 Cloudy 74 23.3 74 23.3 100 100 S 5 7 29.98 1015 10 16 N/A
12:09 pm 12:09 Cloudy 75 24 73 23 94 94 N N/A 29.94 1014 10 16 N/A
12:54 pm 12:54 Mostly Cloudy 79 26 73 23 84 84 VRB 6 9 29.92 1013 10 16 N/A
12:56 pm 12:56 Mostly Cloudy 79 26.1 74 23.3 85 85 VRB 6 9 29.96 1014 10 16 N/A
1:56 pm 13:56 Mostly Cloudy 80 26.7 74 23.3 82 82 SSE 7 11 29.96 1014 9 14 N/A
2:05 pm 14:05 Mostly Cloudy 81 27 73 23 79 79 SSE 7 11 29.92 1013 8 13 N/A
2:35 pm 14:35 Cloudy 81 27 73 23 79 79 VRB 3 6 29.92 1013 8 13 N/A
2:56 pm 14:56 Mostly Cloudy 81 27.2 74 23.3 79 79 VRB 6 9 29.93 1014 10 16 N/A
3:11 pm 15:11 Partly Cloudy 82 28 73 23 74 74 VRB 5 7 29.89 1012 10 16 N/A
3:56 pm 15:56 Mostly Cloudy 82 27.8 72 22.2 72 72 VRB 6 9 29.91 1013 10 16 N/A
4:56 pm 16:56 Partly Cloudy 81 27.2 72 22.2 74 74 S 7 11 29.91 1013 10 16 N/A
5:56 pm 17:56 Sunny 80 26.7 73 22.8 79 79 S 5 7 29.91 1013 10 16 N/A
6:56 pm 18:56 Sunny 78 25.6 73 22.8 85 85 S 3 6 29.91 1013 10 16 N/A
7:56 pm 19:56 Sunny 77 25 74 23.3 90 90 S 5 7 29.89 1012 10 16 N/A
8:56 pm 20:56 Clear 75 23.9 74 23.3 96 96 SSE 5 7 29.89 1012 9 14 N/A
9:56 pm 21:56 Mostly Clear 75 23.9 74 23.3 96 96 S 3 6 29.90 1013 10 16 N/A
10:56 pm 22:56 Mostly Clear 73 22.8 73 22.8 100 100 S 3 6 29.89 1012 10 16 0.00 0.00
11:56 pm 23:56 Mostly Cloudy 74 23.3 74 23.3 100 100 S 3 6 29.88 1012 10 16 N/A

Powered by AerisWeather